Weather History for KFTN - February, 2014

Change the Weather History Date:

Thursday, February 13, 2014

  Actual Average (KCOT) Record (KCOT)
Temperature  
Mean Temperature 56 °F -  
Max Temperature 75 °F 69 °F 87 °F (2000)
Min Temperature 37 °F 47 °F 28 °F (2008)
Degree Days  
Heating Degree Days 9    
Growing Degree Days 6 (Base 50)    
Moisture  
Dew Point 35 °F    
Average Humidity 52    
Maximum Humidity 81    
Minimum Humidity 24    
Precipitation  
Precipitation 0.00 in - - ()
Sea Level Pressure  
Sea Level Pressure 29.99 in    
Wind  
Wind Speed 7 mph (SSE)    
Max Wind Speed 13 mph    
Max Gust Speed 20 mph    
Visibility 10 miles    
Events      
Averages and records for this station are not official NWS values.
T = Trace of Precipitation, MM = Missing Value Source: NWS Daily Summary

Daily Weather History Graph

Daily Weather History Graph

Search for Another Location

Airport or City:

Trip Planner

Search our weather history database for the weather conditions in past years. The results will help you decide how hot, cold, wet, or windy it might be!

Date:

Astronomy

Feb. 13, 2014 Rise Set
Actual Time 7:19 AM CST 6:29 PM CST
Civil Twilight 6:55 AM CST 6:53 PM CST
Nautical Twilight 6:27 AM CST 7:21 PM CST
Astronomical Twilight 6:00 AM CST 7:48 PM CST
Moon 5:38 PM CST (2/13) 6:12 AM CST (2/13)
Length of Visible Light 11h 58m
Length of Day
11h 10m
Waxing Gibbous, 99% of the Moon is Illuminated
Feb 13
Waxing Gibbous
Feb 14
Full
Feb 22
Last Quarter
Mar 1
New
Mar 8
First Quarter

Hourly Weather History & Observations

Time (CST) Temp. Windchill Dew Point Humidity Pressure Visibility Wind Dir Wind Speed Gust Speed Precip Events Conditions
12:15 AM 42.8 °F 38.6 °F 32.0 °F 66% 30.09 in 10.0 mi SSE 6.9 mph - N/A   Clear
12:35 AM 41.0 °F 37.1 °F 32.0 °F 70% 30.08 in 10.0 mi SSE 5.8 mph - N/A   Clear
12:55 AM 41.0 °F 37.1 °F 32.0 °F 70% 30.09 in 10.0 mi SSE 5.8 mph - N/A   Clear
1:15 AM 41.0 °F 38.0 °F 32.0 °F 70% 30.09 in 10.0 mi South 4.6 mph - N/A   Clear
1:35 AM 41.0 °F 36.4 °F 32.0 °F 70% 30.07 in 10.0 mi SE 6.9 mph - N/A   Clear
1:55 AM 39.2 °F 35.0 °F 32.0 °F 75% 30.08 in 10.0 mi SSE 5.8 mph - N/A   Clear
2:15 AM 41.0 °F 36.4 °F 32.0 °F 70% 30.07 in 10.0 mi SE 6.9 mph - N/A   Clear
2:35 AM 41.0 °F 36.4 °F 32.0 °F 70% 30.07 in 10.0 mi SSE 6.9 mph - N/A   Clear
2:55 AM 41.0 °F 35.8 °F 32.0 °F 70% 30.06 in 10.0 mi SSE 8.1 mph - N/A   Clear
3:15 AM 39.2 °F 34.2 °F 32.0 °F 75% 30.06 in 10.0 mi SSE 6.9 mph - N/A   Clear
3:35 AM 37.4 °F 32.1 °F 32.0 °F 81% 30.05 in 10.0 mi SSE 6.9 mph - N/A   Clear
3:55 AM 39.2 °F 34.2 °F 32.0 °F 75% 30.05 in 10.0 mi SSE 6.9 mph - N/A   Clear
4:15 AM 39.2 °F 34.2 °F 32.0 °F 75% 30.05 in 10.0 mi SSE 6.9 mph - N/A   Clear
4:35 AM 39.2 °F 33.6 °F 32.0 °F 75% 30.05 in 10.0 mi SSE 8.1 mph - N/A   Clear
4:55 AM 39.2 °F 34.2 °F 32.0 °F 75% 30.05 in 10.0 mi SSE 6.9 mph - N/A   Clear
5:15 AM 39.2 °F 33.6 °F 32.0 °F 75% 30.04 in 10.0 mi SSE 8.1 mph - N/A   Clear
5:35 AM 39.2 °F 35.0 °F 32.0 °F 75% 30.05 in 10.0 mi SSE 5.8 mph - N/A   Clear
5:55 AM 39.2 °F 35.9 °F 32.0 °F 75% 30.06 in 10.0 mi SSE 4.6 mph - N/A   Clear
6:15 AM 37.4 °F 32.8 °F 32.0 °F 81% 30.06 in 10.0 mi SSE 5.8 mph - N/A   Clear
6:35 AM 37.4 °F 32.1 °F 32.0 °F 81% 30.06 in 10.0 mi SSE 6.9 mph - N/A   Clear
6:55 AM 39.2 °F 34.2 °F 32.0 °F 75% 30.06 in 10.0 mi SSE 6.9 mph - N/A   Clear
7:15 AM 37.4 °F 33.8 °F 32.0 °F 81% 30.06 in 10.0 mi South 4.6 mph - N/A   Clear
7:35 AM 39.2 °F 35.9 °F 32.0 °F 75% 30.06 in 10.0 mi SSE 4.6 mph - N/A   Clear
7:55 AM 39.2 °F 35.0 °F 32.0 °F 75% 30.07 in 10.0 mi SSE 5.8 mph - N/A   Clear
8:15 AM 41.0 °F 36.4 °F 33.8 °F 76% 30.07 in 10.0 mi South 6.9 mph - N/A   Clear
8:35 AM 44.6 °F 39.7 °F 35.6 °F 71% 30.07 in 10.0 mi South 9.2 mph - N/A   Clear
8:55 AM 46.4 °F 42.4 °F 35.6 °F 66% 30.08 in 10.0 mi SSE 8.1 mph - N/A   Clear
9:15 AM 48.2 °F - 35.6 °F 62% 30.08 in 10.0 mi South 10.4 mph - N/A   Clear
9:35 AM 50.0 °F - 35.6 °F 58% 30.08 in 10.0 mi SSE 9.2 mph - N/A   Clear
9:55 AM 53.6 °F - 35.6 °F 51% 30.08 in 10.0 mi SSE 11.5 mph - N/A   Clear
10:15 AM 55.4 °F - 35.6 °F 47% 30.08 in 10.0 mi South 11.5 mph - N/A   Clear
10:35 AM 55.4 °F - 35.6 °F 47% 30.07 in 10.0 mi South 11.5 mph - N/A   Clear
10:55 AM 57.2 °F - 35.6 °F 44% 30.06 in 10.0 mi SSE 9.2 mph - N/A   Clear
11:15 AM 59.0 °F - 37.4 °F 45% 30.05 in 10.0 mi SSE 11.5 mph - N/A   Clear
11:35 AM 62.6 °F - 37.4 °F 39% 30.05 in 10.0 mi SSE 6.9 mph - N/A   Clear
11:55 AM 62.6 °F - 35.6 °F 37% 30.03 in 10.0 mi SSE 11.5 mph 17.3 mph N/A   Clear
12:15 PM 64.4 °F - 37.4 °F 37% 30.01 in 10.0 mi South 12.7 mph 19.6 mph N/A   Clear
12:35 PM 66.2 °F - 37.4 °F 35% 30.00 in 10.0 mi SSE 10.4 mph 18.4 mph N/A   Clear
12:55 PM 66.2 °F - 35.6 °F 32% 29.99 in 10.0 mi SSE 10.4 mph 16.1 mph N/A   Clear
1:35 PM 68.0 °F - 35.6 °F 30% 29.96 in 10.0 mi SE 6.9 mph 18.4 mph N/A   Clear
1:55 PM 69.8 °F - 35.6 °F 28% 29.94 in 10.0 mi South 8.1 mph 19.6 mph N/A   Clear
2:15 PM 71.6 °F - 35.6 °F 27% 29.93 in 10.0 mi SSE 12.7 mph 16.1 mph N/A   Clear
2:35 PM 71.6 °F - 35.6 °F 27% 29.92 in 10.0 mi SE 12.7 mph 17.3 mph N/A   Clear
2:55 PM 73.4 °F - 37.4 °F 27% 29.91 in 10.0 mi South 9.2 mph 17.3 mph N/A   Clear
3:15 PM 73.4 °F - 35.6 °F 25% 29.90 in 10.0 mi SSE 8.1 mph 16.1 mph N/A   Clear
3:35 PM 73.4 °F - 35.6 °F 25% 29.90 in 10.0 mi South 10.4 mph 16.1 mph N/A   Clear
3:55 PM 73.4 °F - 35.6 °F 25% 29.89 in 10.0 mi SSE 12.7 mph 16.1 mph N/A   Clear
4:15 PM 75.2 °F - 35.6 °F 24% 29.89 in 10.0 mi SE 10.4 mph - N/A   Clear
4:35 PM 73.4 °F - 35.6 °F 25% 29.89 in 10.0 mi SSE 10.4 mph - N/A   Clear
4:55 PM 73.4 °F - 35.6 °F 25% 29.88 in 10.0 mi SE 10.4 mph - N/A   Clear
5:15 PM 73.4 °F - 35.6 °F 25% 29.89 in 10.0 mi SE 9.2 mph - N/A   Clear
5:35 PM 73.4 °F - 35.6 °F 25% 29.89 in 10.0 mi SSE 8.1 mph - N/A   Clear
5:55 PM 73.4 °F - 35.6 °F 25% 29.89 in 10.0 mi SE 6.9 mph - N/A   Clear
6:15 PM 71.6 °F - 35.6 °F 27% 29.90 in 10.0 mi SE 6.9 mph - N/A   Clear
6:35 PM 68.0 °F - 35.6 °F 30% 29.90 in 10.0 mi SE 6.9 mph - N/A   Clear
6:55 PM 66.2 °F - 35.6 °F 32% 29.90 in 10.0 mi SSE 8.1 mph - N/A   Clear
7:15 PM 62.6 °F - 35.6 °F 37% 29.90 in 10.0 mi SSE 6.9 mph - N/A   Clear
7:35 PM 62.6 °F - 37.4 °F 39% 29.91 in 10.0 mi SSE 5.8 mph - N/A   Clear
7:55 PM 59.0 °F - 37.4 °F 45% 29.92 in 10.0 mi East 5.8 mph - N/A   Clear
8:15 PM 59.0 °F - 35.6 °F 42% 29.92 in 10.0 mi SE 5.8 mph - N/A   Clear
8:35 PM 59.0 °F - 35.6 °F 42% 29.92 in 10.0 mi SE 8.1 mph - N/A   Clear
8:55 PM 59.0 °F - 35.6 °F 42% 29.92 in 10.0 mi SSE 8.1 mph - N/A   Clear
9:15 PM 59.0 °F - 35.6 °F 42% 29.92 in 10.0 mi SE 8.1 mph - N/A   Clear
9:35 PM 57.2 °F - 35.6 °F 44% 29.92 in 10.0 mi SSE 6.9 mph - N/A   Clear
9:55 PM 57.2 °F - 35.6 °F 44% 29.92 in 10.0 mi SSE 6.9 mph - N/A   Clear
10:15 PM 55.4 °F - 35.6 °F 47% 29.92 in 10.0 mi SSE 6.9 mph - N/A   Clear
10:35 PM 55.4 °F - 35.6 °F 47% 29.92 in 10.0 mi SSE 6.9 mph - N/A   Clear
10:55 PM 53.6 °F - 35.6 °F 51% 29.92 in 10.0 mi SSE 8.1 mph - N/A   Clear
11:15 PM 53.6 °F - 35.6 °F 51% 29.92 in 10.0 mi SSE 5.8 mph - N/A   Clear
11:35 PM 53.6 °F - 35.6 °F 51% 29.92 in 10.0 mi SSE 6.9 mph - N/A   Clear
11:55 PM 53.6 °F - 37.4 °F 54% 29.93 in 10.0 mi SSE 6.9 mph - N/A   Clear